Regional Weather Roundup
Issued by NWS

Home | Current Version | Previous Version | Graphics & Text | Print | Product List | Glossary On
Versions: 1 2 3 4 5 6 7 8 9 10 11 12 13 14 15 16 17 18 19 20 21 22 23 24 25 26 27 28 29 30 31 32 33 34 35 36 37 38 39 40 41 42 43 44 45 46 47 48 49 50
000
ASUS43 KMKX 260059
RWRWI

WISCONSIN REGIONAL WEATHER ROUNDUP
NATIONAL WEATHER SERVICE MILWAUKEE/SULLIVAN WI
800 PM CDT THU MAY 25 2017

NOTE: "FAIR" INDICATES FEW OR NO CLOUDS BELOW 12,000 FEET WITH NO
SIGNIFICANT WEATHER AND/OR OBSTRUCTIONS TO VISIBILITY.

WIZ001-002-006>008-014>016-023>028-260200-
NORTHWEST WISCONSIN

CITY           SKY/WX    TMP DP  RH WIND       PRES   REMARKS
SUPERIOR ARPT  NOT AVBL
ASHLAND        MOCLDY    49  43  80 N8        29.70S
HAYWARD        PTCLDY    69  48  47 CALM      29.68R
SIREN          CLOUDY    67  49  53 CALM      29.67R
CUMBERLAND     CLOUDY    63  52  67 SW5       29.68R
RICE LAKE      CLOUDY    68  49  50 SW3       29.68R
CHETEK         MOCLDY    67  52  59 SW3       29.67R
LADYSMITH      CLOUDY    68  52  56 S3        29.69R
EAU CLAIRE     PTCLDY    68  52  56 SW6       29.66R
MENOMONIE      MOCLDY    69  51  52 S8        29.67R
NEW RICHMOND   PTCLDY    65  49  57 S5        29.68R
OSCEOLA        PTCLDY    66  51  57 S6        29.69S
$$

WIZ003>005-009-010-017-018-260200-
NORTH CENTRAL WISCONSIN

CITY           SKY/WX    TMP DP  RH WIND       PRES   REMARKS
MANITOWISH WTR PTCLDY    67  46  47 CALM      29.69R
ARBOR VITAE    CLEAR     72  49  43 CALM      29.69R
WOODRUFF       CLEAR     72  49  43 CALM      29.69R
RHINELANDER    CLEAR     66  50  56 CALM      29.70R
EAGLE RIVER    CLEAR     67  43  41 SE6       29.70R
LAND O LAKES   CLEAR     69  43  38 E6        29.71S
PHILLIPS       CLOUDY    67  49  53 CALM      29.67S
TOMAHAWK       CLOUDY    65  49  56 CALM      29.70R
MEDFORD        CLEAR     66  51  58 S3        29.68R
MERRILL        CLOUDY    67  51  56 CALM      29.69R
$$

WIZ029-030-035-036-043>047-260200-
CENTRAL WISCONSIN

CITY           SKY/WX    TMP DP  RH WIND       PRES   REMARKS
WAUSAU         CLOUDY    66  50  56 SE3       29.67R
MOSINEE        MOCLDY    66  52  59 CALM      29.70R
MARSHFIELD     CLEAR     66  50  56 S5        29.67S
STEVENS POINT  CLEAR     67  48  51 CALM      29.69S
WAUPACA        CLEAR     67  52  58 E6        29.70R
WAUTOMA        CLEAR     68  51  54 SE5       29.70R
WISC RAPIDS    CLEAR     66  53  63 S3        29.69R
CAMP DOUGLAS   NOT AVBL
$$

WIZ011>013-019>022-031-037>040-048>050-260200-
NORTHEAST WISCONSIN

CITY           SKY/WX    TMP DP  RH WIND       PRES   REMARKS
ANTIGO         CLEAR     64  54  69 S5        29.71R
SHAWANO        PTCLDY    66  51  58 SE3       29.69S
OCONTO         CLEAR     65  49  56 E5        29.69R
STURGEON BAY   CLEAR     58  52  80 NE8       29.71R
GREEN BAY      CLEAR     64  53  67 E6        29.70R
MANITOWOC      NOT AVBL
APPLETON       PTCLDY    66  45  45 NE5       29.69R
CLINTONVILLE   CLEAR     66  48  52 SE3       29.69R
OSHKOSH        CLEAR     65  54  67 SE3       29.70R
$$

WIZ032>034-041-042-053>061-260200-
SOUTHWEST WISCONSIN

CITY           SKY/WX    TMP DP  RH WIND       PRES   REMARKS
LA CROSSE      MOCLDY    70  54  56 S6        29.66R
SPARTA         CLEAR     68  52  56 S3        29.68R
VIROQUA        MOCLDY    67  51  56 MISG      29.69R
BOSCOBEL       CLEAR     69  53  56 S3        29.70R
PRAIRIE DU CHI CLEAR     68  51  54 E3        29.68R
PLATTEVILLE    CLEAR     68  56  67 SW5       29.70S
$$

WIZ056-057-062-063-064-067-068-260200-
SOUTH CENTRAL WISCONSIN

CITY           SKY/WX    TMP DP  RH WIND       PRES   REMARKS
REEDSBURG      CLEAR     68  54  60 CALM      29.68S
BARABOO/DELLS  CLEAR     68  52  56 CALM      29.69S
LONE ROCK      NOT AVBL
MINERAL POINT  CLEAR     68  55  64 CALM      29.71R
MADISON        PTCLDY    66  50  56 NE3       29.69R
MIDDLETON      PTCLDY    69  53  56 CALM      29.70R
WATERTOWN      CLEAR     65  53  64 N5        29.69R
MONROE         CLEAR     66  50  55 CALM      29.70R
JANESVILLE     PTCLDY    70  48  46 CALM      29.69R
$$

WIZ051-052-058>065-066-070>072-260200-
SOUTHEAST WISCONSIN

CITY           SKY/WX    TMP DP  RH WIND       PRES   REMARKS
MILWAUKEE      PTCLDY    57  52  83 N9        29.70R
WAUKESHA       PTCLDY    61  52  72 E5        29.71R
MILWAUKEE/TIMM CLEAR     61  48  63 NE5       29.71R
RACINE         MOCLDY    55  50  83 N9        29.72R
KENOSHA        CLEAR     58  51  78 NE8       29.71R
FOND DU LAC    CLEAR     65  52  62 E6        29.70R
SHEBOYGAN      CLEAR     58  54  86 NE7       29.70R
WEST BEND      CLEAR     63  52  67 NE3       29.70R
JUNEAU         CLEAR     65  52  62 N3        29.70R
$$

LSZ147-162-260200-
LAKE SUPERIOR

STATION/POSITION TIME  TEMP    WIND        PRES    WAVE
                       AIR SEA DIR/SP/G            HT/PER
                 (UTC) (F)     (DEG/KT/KT) (MB)    (FT/S)
$$

LMZ867-665-643>646-260200-
LAKE MICHIGAN

STATION/POSITION TIME  TEMP    WIND        PRES    WAVE
                       AIR SEA DIR/SP/G            HT/PER
                 (UTC) (F)     (DEG/KT/KT) (MB)    (FT/S)
$$

TC  - TEMPERATURE IN CELSIUS
VSB - VISIBILITY IN STATUTE MILES
WCI - WIND CHILL INDEX
HX  - HEAT INDEX





USA.gov is the U.S. government's official web portal to all federal, state and local government web resources and services.